| time (UTC) | temp F | wind direction | speed knots | gust knots | rain 1hr in | rain 24hr in | rain mn in | humidity % | barometer mb |
| 20260505040359 | 74 | 120 | 0.9 | 3.5 | 0.00 | 1.33 | 1.33 | 99 | 1012.7 |
| 20260505035856 | 74 | 66 | 0.0 | 6.1 | 0.00 | 1.33 | 1.33 | 99 | 1012.6 |
| 20260505035352 | 74 | 291 | 0.9 | 4.3 | 0.00 | 1.33 | 1.33 | 99 | 1012.5 |
| 20260505034849 | 75 | 151 | 1.7 | 6.1 | 0.00 | 1.33 | 1.33 | 99 | 1012.5 |
| 20260505034346 | 75 | 106 | 1.7 | 5.2 | 0.00 | 1.33 | 1.33 | 99 | 1012.3 |
| 20260505033843 | 75 | 69 | 0.0 | 6.1 | 0.00 | 1.33 | 1.33 | 99 | 1012.4 |
| 20260505033339 | 75 | 162 | 1.7 | 7.8 | 0.00 | 1.33 | 1.33 | 99 | 1012.5 |
| 20260505032838 | 75 | 228 | 0.0 | 2.6 | 0.00 | 1.33 | 1.33 | 99 | 1012.6 |
| 20260505032334 | 75 | 135 | 1.7 | 6.1 | 0.00 | 1.33 | 1.33 | 99 | 1012.6 |
| 20260505031831 | 75 | 245 | 0.0 | 6.1 | 0.00 | 1.33 | 1.33 | 99 | 1012.6 |
| 20260505031328 | 75 | 248 | 0.0 | 5.2 | 0.00 | 1.33 | 1.33 | 99 | 1012.5 |
| 20260505030825 | 75 | 142 | 3.5 | 5.2 | 0.00 | 1.33 | 1.33 | 99 | 1012.8 |
| 20260505030321 | 75 | 127 | 2.6 | 4.3 | 0.00 | 1.33 | 1.33 | 99 | 1012.5 |
| 20260505025816 | 75 | 96 | 1.7 | 6.1 | 0.00 | 1.33 | 1.33 | 99 | 1012.6 |
| 20260505025315 | 75 | 218 | 4.3 | 4.3 | 0.00 | 1.33 | 1.33 | 99 | 1012.8 |
| 20260505024813 | 75 | 132 | 0.0 | 5.2 | 0.00 | 1.33 | 1.33 | 99 | 1012.6 |
| 20260505024310 | 75 | 233 | 0.0 | 10.4 | 0.00 | 1.33 | 1.33 | 99 | 1012.6 |
| 20260505023807 | 75 | 135 | 1.7 | 6.1 | 0.00 | 1.33 | 1.33 | 99 | 1012.4 |
| 20260505023304 | 75 | 74 | 0.0 | 3.5 | 0.00 | 1.33 | 1.33 | 99 | 1012.6 |
| 20260505022801 | 75 | 235 | 1.7 | 7.0 | 0.00 | 1.33 | 1.33 | 99 | 1012.3 |
| 20260505022258 | 75 | 222 | 2.6 | 3.5 | 0.00 | 1.33 | 1.33 | 99 | 1012.4 |
| 20260505021755 | 75 | 203 | 4.3 | 6.1 | 0.00 | 1.33 | 1.33 | 99 | 1012.4 |
| 20260505021252 | 75 | 194 | 0.0 | 7.0 | 0.00 | 1.33 | 1.33 | 99 | 1012.2 |
| 20260505020748 | 75 | 151 | 1.7 | 5.2 | 0.00 | 1.33 | 1.33 | 99 | 1012.1 |
| 20260505020243 | 75 | 45 | 0.0 | 4.3 | 0.00 | 1.33 | 1.33 | 99 | 1012.2 |
| 20260505015740 | 76 | 90 | 0.9 | 7.0 | 0.00 | 1.33 | 1.33 | 99 | 1012.2 |
| 20260505015237 | 75 | 213 | 1.7 | 4.3 | 0.00 | 1.33 | 1.33 | 99 | 1012.3 |
| 20260505014734 | 76 | 270 | 1.7 | 4.3 | 0.00 | 1.33 | 1.33 | 99 | 1012.5 |
| 20260505014232 | 76 | 128 | 2.6 | 7.0 | 0.00 | 1.33 | 1.33 | 99 | 1012.5 |
| 20260505013728 | 76 | 135 | 2.6 | 3.5 | 0.00 | 1.33 | 1.33 | 99 | 1012.3 |
| 20260505013225 | 76 | 188 | 0.0 | 4.3 | 0.00 | 1.33 | 1.33 | 99 | 1012.3 |
| 20260505012724 | 76 | 173 | 0.9 | 6.1 | 0.00 | 1.33 | 1.33 | 99 | 1012.3 |
| 20260505012221 | 76 | 153 | 3.5 | 4.3 | 0.00 | 1.33 | 1.33 | 99 | 1012.2 |
| 20260505011716 | 77 | 234 | 0.0 | 4.3 | 0.00 | 1.33 | 1.33 | 99 | 1012.2 |
| 20260505011214 | 77 | 120 | 0.9 | 7.8 | 0.00 | 1.33 | 1.33 | 99 | 1012.3 |
| 20260505010709 | 77 | 258 | 4.3 | 10.4 | 0.00 | 1.33 | 1.33 | 99 | 1012.3 |
| 20260505010206 | 77 | 135 | 2.6 | 7.0 | 0.00 | 1.33 | 1.33 | 99 | 1012.2 |
| 20260505005702 | 77 | 217 | 0.0 | 7.8 | 0.00 | 1.33 | 1.33 | 99 | 1012.0 |
| 20260505005159 | 77 | 123 | 0.0 | 4.3 | 0.00 | 1.33 | 1.33 | 99 | 1012.1 |
| 20260505004656 | 77 | 246 | 0.9 | 8.7 | 0.00 | 1.33 | 1.33 | 99 | 1012.2 |
| 20260505004153 | 77 | 119 | 2.6 | 19.1 | 0.00 | 1.33 | 1.33 | 99 | 1012.0 |
| 20260505003650 | 77 | 212 | 0.0 | 5.2 | 0.00 | 1.33 | 1.33 | 99 | 1012.4 |
| 20260505003147 | 77 | 152 | 2.6 | 7.8 | 0.00 | 1.33 | 1.33 | 99 | 1012.4 |
| 20260505002644 | 78 | 153 | 3.5 | 6.1 | 0.00 | 1.33 | 1.33 | 99 | 1012.2 |
| 20260505002142 | 78 | 82 | 0.0 | 7.8 | 0.00 | 1.33 | 1.33 | 99 | 1012.4 |
| 20260505001638 | 78 | 90 | 0.0 | 7.0 | 0.00 | 1.33 | 1.33 | 99 | 1012.4 |
| 20260505001136 | 78 | 221 | 1.7 | 5.2 | 0.00 | 1.33 | 1.33 | 99 | 1012.5 |
| 20260505000633 | 79 | 217 | 6.1 | 15.6 | 0.00 | 1.33 | 1.33 | 99 | 1012.5 |
| 20260505000131 | 79 | 210 | 2.6 | 9.6 | 0.00 | 1.33 | 1.33 | 99 | 1012.4 |
| 20260504235627 | 79 | 131 | 0.0 | 7.8 | 0.00 | 1.33 | 1.33 | 99 | 1012.5 |
| 20260504235124 | 79 | 135 | 2.6 | 10.4 | 0.00 | 1.33 | 1.33 | 99 | 1012.4 |
| 20260504234621 | 79 | 175 | 4.3 | 6.1 | 0.00 | 1.33 | 1.33 | 99 | 1012.4 |
| 20260504234118 | 79 | 195 | 0.9 | 5.2 | 0.00 | 1.33 | 1.33 | 99 | 1012.6 |
| 20260504233613 | 79 | 218 | 2.6 | 9.6 | 0.00 | 1.33 | 1.33 | 99 | 1012.6 |
| 20260504233110 | 79 | 202 | 2.6 | 11.3 | 0.00 | 1.33 | 1.33 | 99 | 1012.5 |
| 20260504232607 | 79 | 142 | 2.6 | 7.8 | 0.00 | 1.33 | 1.33 | 99 | 1012.6 |
| 20260504232105 | 79 | 248 | 7.8 | 7.8 | 0.00 | 1.33 | 1.33 | 99 | 1012.6 |
| 20260504231601 | 79 | 173 | 0.9 | 16.5 | 0.00 | 1.33 | 1.33 | 99 | 1012.7 |
| 20260504231057 | 80 | 216 | 1.7 | 7.0 | 0.00 | 1.33 | 1.33 | 99 | 1012.7 |
| 20260504230553 | 80 | 147 | 2.6 | 7.8 | 0.00 | 1.33 | 1.33 | 99 | 1013.0 |
| 20260504230053 | 81 | 211 | 3.5 | 10.4 | 7.98 | 1.33 | 1.33 | 99 | 1012.9 |
| 20260504225549 | 82 | 203 | 13.0 | 13.0 | 7.98 | 1.33 | 1.33 | 99 | 1012.7 |
| 20260504225046 | 81 | 147 | 3.5 | 8.7 | 0.00 | 0.00 | 0.00 | 99 | 1013.0 |
| 20260504224543 | 81 | 84 | 2.6 | 7.0 | 0.00 | 0.00 | 0.00 | 99 | 1013.1 |
| 20260504224040 | 80 | 0 | 0.9 | 11.3 | 0.00 | 0.00 | 0.00 | 99 | 1013.2 |
| 20260504223537 | 81 | 103 | 2.6 | 6.1 | 0.00 | 0.00 | 0.00 | 99 | 1013.2 |
| 20260504223033 | 82 | 211 | 13.0 | 13.0 | 0.00 | 0.00 | 0.00 | 99 | 1012.9 |
| 20260504222530 | 81 | 176 | 1.7 | 12.2 | 0.00 | 0.00 | 0.00 | 99 | 1013.0 |
| 20260504222027 | 82 | 251 | 4.3 | 9.6 | 0.00 | 0.00 | 0.00 | 99 | 1013.1 |
| 20260504221524 | 82 | 235 | 3.5 | 7.8 | 0.00 | 0.00 | 0.00 | 99 | 1013.1 |
| 20260504221021 | 82 | 125 | 6.1 | 6.1 | 0.00 | 0.00 | 0.00 | 99 | 1013.2 |
| 20260504220518 | 82 | 249 | 0.0 | 9.6 | 0.00 | 0.00 | 0.00 | 99 | 1013.2 |
| 20260504220015 | 82 | 256 | 2.6 | 4.3 | 0.00 | 0.00 | 0.00 | 99 | 1013.3 |
| 20260504215511 | 82 | 159 | 2.6 | 6.1 | 0.00 | 0.00 | 0.00 | 99 | 1013.3 |
| 20260504215009 | 83 | 278 | 0.9 | 4.3 | 0.00 | 0.00 | 0.00 | 99 | 1013.5 |
| 20260504214504 | 82 | 128 | 1.7 | 11.3 | 0.00 | 0.00 | 0.00 | 99 | 1013.5 |
| 20260504214001 | 82 | 141 | 2.6 | 9.6 | 0.00 | 0.00 | 0.00 | 99 | 1013.6 |
| 20260504213457 | 81 | 174 | 0.9 | 10.4 | 0.00 | 0.00 | 0.00 | 99 | 1013.7 |
| 20260504212955 | 82 | 158 | 2.6 | 5.2 | 0.00 | 0.00 | 0.00 | 99 | 1013.7 |
| 20260504212450 | 81 | 111 | 0.0 | 8.7 | 0.00 | 0.00 | 0.00 | 99 | 1013.4 |
| 20260504211948 | 81 | 160 | 3.5 | 6.1 | 0.00 | 0.00 | 0.00 | 99 | 1014.1 |
| 20260504211444 | 81 | 240 | 2.6 | 11.3 | 0.00 | 0.00 | 0.00 | 99 | 1014.0 |
| 20260504210942 | 81 | 96 | 2.6 | 10.4 | 0.00 | 0.00 | 0.00 | 99 | 1014.0 |
| 20260504210438 | 82 | 145 | 3.5 | 5.2 | 0.00 | 0.00 | 0.00 | 99 | 1014.2 |
| 20260504205936 | 82 | 124 | 4.3 | 7.0 | 0.00 | 0.00 | 0.00 | 99 | 1014.4 |
| 20260504205433 | 83 | 153 | 3.5 | 7.8 | 0.00 | 0.00 | 0.00 | 99 | 1014.3 |
| 20260504204931 | 82 | 236 | 3.5 | 10.4 | 0.00 | 0.00 | 0.00 | 99 | 1014.4 |
| 20260504204429 | 81 | 134 | 3.5 | 9.6 | 0.00 | 0.00 | 0.00 | 99 | 1014.6 |
| 20260504203928 | 81 | 151 | 2.6 | 10.4 | 0.00 | 0.00 | 0.00 | 99 | 1014.5 |
| 20260504203425 | 82 | 96 | 1.7 | 7.0 | 0.00 | 0.00 | 0.00 | 99 | 1014.8 |
| 20260504202921 | 81 | 192 | 0.0 | 12.2 | 0.00 | 0.00 | 0.00 | 99 | 1015.0 |
| 20260504202418 | 81 | 184 | 1.7 | 11.3 | 0.00 | 0.00 | 0.00 | 99 | 1014.9 |
| 20260504201915 | 81 | 220 | 0.0 | 13.9 | 0.00 | 0.00 | 0.00 | 99 | 1015.0 |
| 20260504201412 | 82 | 134 | 4.3 | 10.4 | 0.00 | 0.00 | 0.00 | 99 | 1015.0 |
| 20260504200909 | 82 | 261 | 0.9 | 12.2 | 0.00 | 0.00 | 0.00 | 99 | 1015.4 |
| 20260504200406 | 81 | 144 | 5.2 | 11.3 | 0.00 | 0.00 | 0.00 | 99 | 1015.4 |
| 20260504195903 | 81 | 152 | 2.6 | 15.6 | 0.00 | 0.00 | 0.00 | 99 | 1015.8 |
| 20260504195358 | 81 | 235 | 7.8 | 10.4 | 0.00 | 0.00 | 0.00 | 99 | 1015.6 |
| 20260504194855 | 81 | 284 | 6.1 | 8.7 | 0.00 | 0.00 | 0.00 | 99 | 1016.0 |
| 20260504194351 | 80 | 145 | 2.6 | 5.2 | 0.00 | 0.00 | 0.00 | 99 | 1015.9 |
| 20260504193847 | 80 | 229 | 2.6 | 12.2 | 0.00 | 0.00 | 0.00 | 99 | 1015.9 |
| 20260504193344 | 80 | 119 | 1.7 | 11.3 | 0.00 | 0.00 | 0.00 | 99 | 1015.8 |
| 20260504192843 | 80 | 96 | 1.7 | 12.2 | 0.00 | 0.00 | 0.00 | 99 | 1016.3 |
| 20260504192341 | 79 | 189 | 2.6 | 11.3 | 0.00 | 0.00 | 0.00 | 99 | 1016.2 |
| 20260504191839 | 79 | 198 | 7.8 | 7.8 | 0.00 | 0.00 | 0.00 | 99 | 1016.0 |
| 20260504191337 | 79 | 119 | 2.6 | 7.0 | 0.00 | 0.00 | 0.00 | 99 | 1016.5 |
| 20260504190832 | 80 | 172 | 2.6 | 16.5 | 0.00 | 0.00 | 0.00 | 99 | 1016.7 |
| 20260504190328 | 80 | 169 | 1.7 | 7.0 | 0.00 | 0.00 | 0.00 | 99 | 1016.4 |
| 20260504185825 | 80 | 238 | 6.1 | 13.9 | 0.00 | 0.00 | 0.00 | 99 | 1016.5 |
| 20260504185322 | 80 | 223 | 6.1 | 8.7 | 0.00 | 0.00 | 0.00 | 99 | 1016.4 |
| 20260504184818 | 80 | 212 | 2.6 | 7.0 | 0.00 | 0.00 | 0.00 | 99 | 1016.6 |
| 20260504184314 | 78 | 124 | 3.5 | 7.0 | 0.00 | 0.00 | 0.00 | 99 | 1016.5 |
| 20260504183809 | 79 | 162 | 0.0 | 8.7 | 0.00 | 0.00 | 0.00 | 99 | 1016.6 |
| 20260504183307 | 78 | 226 | 5.2 | 10.4 | 0.00 | 0.00 | 0.00 | 99 | 1016.8 |
| 20260504182805 | 78 | 198 | 5.2 | 11.3 | 0.00 | 0.00 | 0.00 | 99 | 1016.9 |
| 20260504182304 | 78 | 208 | 4.3 | 12.2 | 0.00 | 0.00 | 0.00 | 99 | 1016.8 |
| 20260504181759 | 78 | 102 | 1.7 | 6.1 | 0.00 | 0.00 | 0.00 | 99 | 1017.0 |
| 20260504181256 | 79 | 218 | 2.6 | 6.1 | 0.00 | 0.00 | 0.00 | 99 | 1017.0 |
| 20260504180755 | 78 | 187 | 1.7 | 14.8 | 0.00 | 0.00 | 0.00 | 99 | 1017.2 |
| 20260504180253 | 78 | 155 | 5.2 | 7.0 | 0.00 | 0.00 | 0.00 | 99 | 1017.0 |
| 20260504175751 | 78 | 261 | 4.3 | 7.8 | 0.00 | 0.00 | 0.00 | 99 | 1017.4 |
| 20260504175248 | 78 | 114 | 0.0 | 14.8 | 0.00 | 0.00 | 0.00 | 99 | 1017.3 |
| 20260504174745 | 78 | 234 | 9.6 | 13.0 | 0.00 | 0.00 | 0.00 | 99 | 1017.6 |
| 20260504174243 | 77 | 65 | 0.0 | 6.1 | 0.00 | 0.00 | 0.00 | 99 | 1017.6 |
| 20260504173739 | 77 | 165 | 2.6 | 10.4 | 0.00 | 0.00 | 0.00 | 99 | 1017.6 |
| 20260504173237 | 77 | 112 | 1.7 | 5.2 | 0.00 | 0.00 | 0.00 | 99 | 1017.9 |
| 20260504172733 | 77 | 263 | 2.6 | 11.3 | 0.00 | 0.00 | 0.00 | 99 | 1018.0 |
| 20260504172230 | 77 | 90 | 0.9 | 7.0 | 0.00 | 0.00 | 0.00 | 99 | 1017.8 |
| 20260504171726 | 76 | 210 | 0.0 | 16.5 | 0.00 | 0.00 | 0.00 | 99 | 1017.9 |
| 20260504171223 | 77 | 143 | 1.7 | 7.8 | 0.00 | 0.00 | 0.00 | 99 | 1018.0 |
| 20260504170720 | 77 | 125 | 2.6 | 10.4 | 0.00 | 0.00 | 0.00 | 99 | 1018.3 |
| 20260504170217 | 76 | 123 | 0.0 | 6.1 | 0.00 | 0.00 | 0.00 | 99 | 1018.3 |
| 20260504160136 | 73 | 147 | 3.5 | 5.2 | 0.00 | 0.00 | 0.00 | 99 | 1019.0 |
| 20260504151103 | 71 | 133 | 2.6 | 7.8 | 0.00 | 0.00 | 0.00 | 99 | 1019.4 |
| 20260504150601 | 71 | 162 | 1.7 | 13.0 | 0.00 | 0.00 | 0.00 | 99 | 1019.5 |
| 20260504141026 | 68 | 154 | 1.7 | 15.6 | 0.00 | 0.00 | 0.00 | 99 | 1019.9 |
| 20260504140523 | 67 | 235 | 4.3 | 7.8 | 0.00 | 0.00 | 0.00 | 99 | 1019.8 |
| 20260504130447 | 64 | 198 | 3.5 | 7.0 | 0.00 | 0.00 | 0.00 | 99 | 1020.0 |
| 20260504110334 | 62 | 97 | 0.9 | 4.3 | 0.00 | 0.00 | 0.00 | 99 | 1019.3 |
| 20260504100252 | 63 | 141 | 0.0 | 3.5 | 0.00 | 0.00 | 0.00 | 99 | 1019.6 |
| 20260504081645 | 65 | 214 | 2.6 | 4.3 | 0.00 | 0.00 | 0.00 | 99 | 1020.1 |
| 20260504081141 | 64 | 215 | 0.0 | 3.5 | 0.00 | 0.00 | 0.00 | 99 | 1020.1 |
| 20260504080638 | 65 | 182 | 0.0 | 7.0 | 0.00 | 0.00 | 0.00 | 99 | 1020.1 |
| 20260504080134 | 65 | 194 | 2.6 | 4.3 | 0.00 | 0.00 | 0.00 | 99 | 1019.9 |
| 20260504050451 | 68 | 328 | 0.0 | 2.6 | 0.00 | 0.00 | 0.00 | 99 | 1021.9 |
| 20260504045948 | 68 | 233 | 0.0 | 5.2 | 0.00 | 0.00 | 0.00 | 99 | 1022.2 |
| 20260504045443 | 69 | 172 | 0.0 | 4.3 | 0.00 | 0.00 | 0.00 | 99 | 1022.2 |
| 20260504044940 | 69 | 247 | 0.0 | 3.5 | 0.00 | 0.00 | 0.00 | 99 | 1022.2 |
| 20260504044437 | 69 | 254 | 0.0 | 5.2 | 0.00 | 0.00 | 0.00 | 99 | 1022.1 |
| 20260504043935 | 69 | 103 | 0.0 | 5.2 | 0.00 | 0.00 | 0.00 | 99 | 1022.3 |
| 20260504043432 | 69 | 263 | 0.9 | 5.2 | 0.00 | 0.00 | 0.00 | 99 | 1022.3 |
| 20260504042929 | 69 | 192 | 0.9 | 6.1 | 0.00 | 0.00 | 0.00 | 99 | 1022.4 |
| 20260504042426 | 69 | 183 | 0.0 | 1.7 | 0.00 | 0.00 | 0.00 | 99 | 1022.3 |
| 20260504041922 | 69 | 163 | 1.7 | 3.5 | 0.00 | 0.00 | 0.00 | 99 | 1022.3 |
| 20260504041418 | 69 | 90 | 1.7 | 4.3 | 0.00 | 0.00 | 0.00 | 99 | 1022.3 |
| 20260504040914 | 69 | 228 | 0.0 | 1.7 | 0.00 | 0.00 | 0.00 | 99 | 1022.3 |